Regional Weather Roundup
Issued by NWS

Home | Current Version | Previous Version | Graphics & Text | Print | Product List | Glossary On
Versions: 1 2 3 4 5 6 7 8 9 10 11 12 13 14 15 16 17 18 19 20 21 22 23 24 25 26 27 28 29 30 31 32 33 34 35 36 37 38 39 40 41 42 43 44 45 46 47 48 49 50
000
ASUS43 KOAX 120402
RWRNE

WEATHER ROUNDUP FOR NEBRASKA
NATIONAL WEATHER SERVICE OMAHA NE
1100 PM CDT FRI JUL 11 2014

NOTES: SATELLITE DATA IS BEING USED TO AUGMENT CLOUD COVER ABOVE
       12000 FEET.
       "FAIR" INDICATES FEW OR NO CLOUDS BELOW 12,000 FEET WITH NO
       SIGNIFICANT WEATHER AND/OR OBSTRUCTIONS TO VISIBILITY.

  * THESE STATIONS DO NOT REPORT WEATHER SUCH AS RAIN...SNOW OR FOG.

NEZ001>004-019>022-054>056-120500-
NEBRASKA PANHANDLE

CITY           SKY/WX    TMP DP  RH WIND       PRES   REMARKS
SCOTTSBLUFF    TSTM      64  63  96 N9        30.17R VSB 1
ALLIANCE         N/A     65  63  93 N20       30.16R
CHADRON        LGT RAIN  64  62  93 NE7       30.17R
KIMBALL        DRIZZLE   68  66  93 N7        30.17F
SIDNEY         LGT RAIN  70  66  87 NW10      30.15R
$$

NEZ057>060-069>072-079>082-120500-
SOUTHWEST NEBRASKA

CITY           SKY/WX    TMP DP  RH WIND       PRES   REMARKS
NORTH PLATTE   CLOUDY    76  71  85 N5        30.00R
IMPERIAL       CLOUDY    73  68  84 NW13G23   30.07R
LEXINGTON      MOCLDY    79  71  77 SE8       29.96F
MCCOOK         MOCLDY    83  58  42 S12       29.98R
OGALLALA       TSTM      69  66  92 SE13      30.07R
$$

NEZ005>010-023>029-035>040-094-120500-
NORTH CENTRAL NEBRASKA

CITY           SKY/WX    TMP DP  RH WIND       PRES   REMARKS
VALENTINE      LGT RAIN  75  72  90 CALM      30.06S
AINSWORTH      LGT RAIN  73  72  96 SW8       30.10R
BROKEN BOW     CLOUDY    76  73  91 E8        30.00S FOG
O`NEILL        CLOUDY    75  70  84 E9        30.03F THUNDER
ORD            MOCLDY    74  72  93 NE6       29.99S
THEDFORD       CLOUDY    71  69  94 N12       30.07S THUNDER
$$

NEZ041-046>049-061>064-073>077-083>087-120500-
SOUTH CENTRAL NEBRASKA

CITY           SKY/WX    TMP DP  RH WIND       PRES   REMARKS
GRAND ISLAND   CLEAR     77  74  90 E6        29.97F
AURORA         CLEAR     78  76  94 SE6       29.97F
HASTINGS       CLEAR     80  62  54 S9        29.97S
HEBRON         CLEAR     82  65  57 S9        29.99S
HOLDREGE       PTCLDY    80  62  54 S10       29.97F
KEARNEY *      PTCLDY    77  64  65 S9        29.97F
YORK           CLEAR     75  75 100 SE7       29.98F
$$

NEZ011>018-030>034-042>045-120500-
NORTHEAST NEBRASKA

CITY           SKY/WX    TMP DP  RH WIND       PRES   REMARKS
NORFOLK        CLOUDY    74  71  91 E6        30.03R
ALBION         MOCLDY    74  71  88 NE8       30.02R
BLAIR          CLOUDY    76  72  86 E7        30.00S
TEKAMAH        CLOUDY    75  72  90 N6        30.00S
WAYNE          CLOUDY    74  72  92 CALM      30.03R
$$

NEZ050>053-065>068-078-088>093-120500-
SOUTHEAST NEBRASKA

CITY           SKY/WX    TMP DP  RH WIND       PRES   REMARKS
LINCOLN        PTCLDY    81  75  82 SE7       29.98S
OMAHA EPPLEY   CLOUDY    79  73  82 SE8       29.99S
BEATRICE       CLEAR     80  68  67 S9        30.00R
FALLS CITY     CLEAR     81  75  82 S6        30.01R
NEBRASKA CITY  PTCLDY    78  75  90 S6        30.00R
PLATTSMOUTH    MOCLDY    78  74  88 E6        30.00S
$$

NEZ044-045-051>053-067-120500-
OMAHA AREA

CITY           SKY/WX    TMP DP  RH WIND       PRES   REMARKS
OMAHA EPPLEY   CLOUDY    79  73  82 SE8       29.99S
BLAIR          CLOUDY    76  72  86 E7        30.00S
MILLARD        MOCLDY    79  74  84 SE3       29.98F
OFFUTT AFB     CLOUDY    78  78  99 E7        29.99S
PLATTSMOUTH    MOCLDY    78  74  88 E6        30.00S
WAHOO          FAIR      76  72  87 CALM      29.98F
$$



USA.gov is the U.S. government's official web portal to all federal, state and local government web resources and services.